Home > Weather > Olathe > Past weeks

Flag for USA Weather for the Past 2 Weeks in Olathe, Kansas, USA

Now
58 °F

Sunny.


Feels Like: 55 °F
Forecast: 50 / 67 °F
Wind: 14 mph from North

Location: Johnson County Executive Airport

Current Time: May 4, 2016 at 9:35:02 AM

Latest Report: May 4, 2016 at 8:53 AM


Visibility: 10 mi

Pressure: 29.92 "Hg

Humidity: 47%

Dew Point: 38 °F

Location of OlatheLocation

Historic Weather in Olathe — Graph

°F

Olathe Temperature Yesterday

Maximum temperature yesterday: 67 °F (at 4:53 PM)
Minimum temperature yesterday: 45 °F (at 1:53 AM)
Average temperature yesterday: 56 °F

High & Low Weather Summary for the Past Weeks

 TemperatureHumidityPressure
High76 °F (Apr 23, 3:53 PM)100% (Apr 27, 3:53 AM)30.19 "Hg (Apr 27, 3:53 AM)
Low44 °F (Apr 28, 4:53 AM)36% (Apr 23, 4:53 PM)29.44 "Hg (Apr 27, 4:53 AM)
Average58 °F74%29.88 "Hg
* Reported Apr 19 7:53 AM — May 4 7:53 AM, Olathe, Weather by CustomWeather, © 2016

Note: Actual official high and low records may vary slightly from our data, if they occured in-between our weather recording intervals... More about our weather records

Advertising

Olathe Weather History for the Previous 24 Hours

Scroll right to see more
 ConditionsComfort  
Time TempWeatherWind HumidityBarometerVisibility
7:53 AM
Wed, May 4
56 °FSunny.10 mph58%29.90 "Hg10 mi
6:53 AM53 °FClear.7 mph69%29.87 "Hg10 mi
5:53 AM54 °FClear.12 mph67%29.85 "Hg10 mi
4:53 AM54 °FPassing clouds.7 mph67%29.84 "Hg10 mi
3:53 AM53 °FPassing clouds.7 mph69%29.85 "Hg10 mi
2:53 AM54 °FClear.7 mph69%29.86 "Hg10 mi
1:53 AM55 °FClear.6 mph67%29.88 "Hg10 mi
12:53 AM56 °FClear.5 mph65%29.90 "Hg10 mi
11:53 PM
Tue, May 3
55 °FClear.3 mph67%29.91 "Hg10 mi
10:53 PM56 °FClear.No wind67%29.93 "Hg10 mi
9:53 PM59 °FPassing clouds.3 mph60%29.94 "Hg10 mi
8:53 PM61 °FScattered clouds.No wind54%29.94 "Hg10 mi
7:53 PM64 °FSunny.5 mph45%29.94 "Hg10 mi
6:53 PM66 °FScattered clouds.8 mph40%29.95 "Hg10 mi
5:53 PM67 °FPassing clouds.10 mph37%29.96 "Hg10 mi
4:53 PM67 °FScattered clouds.10 mph37%29.98 "Hg10 mi
3:53 PM65 °FPassing clouds.7 mph37%30.00 "Hg10 mi
2:53 PM66 °FPassing clouds.6 mph37%30.02 "Hg10 mi
1:53 PM63 °FScattered clouds.6 mph40%30.03 "Hg10 mi
12:53 PM63 °FPartly sunny.9 mph43%30.06 "Hg10 mi
11:53 AM63 °FScattered clouds.No wind41%30.07 "Hg10 mi
10:53 AM60 °FSunny.5 mph52%30.08 "Hg10 mi
9:53 AM58 °FSunny.7 mph62%30.09 "Hg10 mi
Weather by CustomWeather, © 2016

See weather overviewHow to use our weather pages